Flag for United Kingdom Weather past 2 weeks in Liverpool, England, United Kingdom

Now
77 °F

Sunny.


Feels Like: 79 °F
Forecast: 63 / 77 °F
Wind: 17 mph from East

Location: Liverpool Airport

Current Time: Jul 23, 2014 at 7:52:36 PM

Latest Report: Jul 23, 2014 at 7:20 PM


Visibility: 10 mi

Pressure: 30.09 "Hg

Humidity: 51%

Dew point: 57 °F

Location of LiverpoolLocation

Historic Weather in Liverpool — Graph

°F

Liverpool temperature yesterday

Maximum temperature yesterday: 77 °F (at 2:20 PM)
Minimum temperature yesterday: 57 °F (at 4:20 AM)
Average temperature yesterday: 68 °F

Past Weeks' High & Low Weather Summary

 TemperatureHumidityPressure
High81 °F (Jul 23, 1:50 PM)100% (Jul 12, 3:20 AM)30.24 "Hg (Jul 12, 3:20 AM)
Low52 °F (Jul 14, 4:20 AM)39% (Jul 23, 4:50 PM)29.71 "Hg (Jul 13, 4:20 AM)
Average65 °F77%30.01 "Hg
* Reported Jul 8 6:20 PM — Jul 23 6:20 PM, Liverpool, Weather by CustomWeather, © 2014

Note: Actual official high and low records may vary slightly from our data, if they occured in-between our weather recording intervals... More about our weather records

Advertising

Liverpool weather history for previous 24 hours

 ConditionsComfort  
Time TempWeatherWind HumidityBarometerVisibility
6:20 PM
Jul 23
79 °FSunny.18 mph45%30.12 "Hg10 mi
5:50 PM79 °FSunny.18 mph45%30.12 "Hg10 mi
5:20 PM81 °FSunny.16 mph42%30.12 "Hg10 mi
4:50 PM81 °FPassing clouds.17 mph39%30.12 "HgN/A
4:20 PM81 °FPassing clouds.15 mph45%30.12 "HgN/A
3:50 PM81 °FPassing clouds.16 mph42%30.12 "HgN/A
3:20 PM79 °FPassing clouds.16 mph48%30.12 "HgN/A
2:50 PM81 °FPassing clouds.17 mph45%30.15 "HgN/A
1:50 PM81 °FPassing clouds.15 mph45%30.15 "HgN/A
1:20 PM79 °FPassing clouds.13 mph51%30.15 "HgN/A
12:50 PM77 °FPassing clouds.15 mph57%30.18 "HgN/A
12:20 PM77 °FSunny.13 mph57%30.18 "Hg10 mi
9:50 AM70 °FPassing clouds.5 mph69%30.21 "HgN/A
8:50 AM66 °FPassing clouds.6 mph78%30.21 "HgN/A
6:50 AM61 °FClear.8 mph94%30.24 "Hg6 mi
6:20 AM59 °FSunny.9 mph94%30.24 "Hg10 mi
5:50 AM59 °FClear.8 mph94%30.24 "Hg10 mi
5:20 AM57 °FClear.10 mph94%30.24 "Hg10 mi
4:50 AM57 °FClear.6 mph94%30.24 "Hg10 mi
3:20 AM63 °FClear.6 mph83%30.24 "Hg10 mi
2:50 AM63 °FClear.7 mph83%30.24 "Hg10 mi
2:20 AM61 °FClear.6 mph88%30.24 "Hg10 mi
1:50 AM63 °FClear.7 mph83%30.24 "Hg10 mi
1:20 AM63 °FClear.7 mph83%30.24 "Hg10 mi
12:50 AM64 °FClear.6 mph78%30.24 "Hg10 mi
Weather by CustomWeather, © 2014

See weather overviewHow to use our weather pages